Find Starlink 11337

NORAD ID: 61940 Int'l Des: 2024-209 Owner: SPXS Country: US Constellation: starlink operational
別名: STARLINK-11337 [DTC] celestrak
LEOCIRCULAR

現在のビュー

3D地球を読み込み中...

About Starlink 11337

Starlink 11337 (NORAD 61940) is a starlink constellation satellite (v2 mini d2c) launched Nov 14, 2024 by SPXS of US. It operates in LEO, CIRCULAR orbit with a mass of 960.00 kg.

次回通過

Passes for default location (London). Set your location on the main map for personalized predictions.

高度履歴

Loading altitude history...

軌道要素

1 61940U 24209B 26237.42556816 .00183261 00000-0 14809-2 0 9999
2 61940 53.1567 259.1737 0002698 152.0001 208.1163 15.69763442103223
Epoch: Aug 25, 2026 • Age: 9 hours

現在のステータス

高度 373.5 km
遠地点 / 近地点 N/A
速度 7.69 km/s
衛星直下点 -43.11°S, 135.38°W
打ち上げ日 Nov 14, 2024
運用期間 1.7 years
タイプ internet

技術仕様

分類 Payload
質量 960.00 kg
乾燥質量 910.00 kg
総質量 960.00 kg
長さ 0.30 m
直径 4.10 m
スパン 29.00 m
形状 Box + pan
製造者 SPXS
バスタイプ Starlink V2MD
フェーズステータス In Orbit
所有者/国 SPXS/US

Most Searched